Location: Fort Worth, Tx
(32.7431°N, 97.3695°W)
Time: 05:36:55
(UTC-05:00)

Altair - Pass Details

Date: 07 October 2023
Orbit: 1501 x 1682 km, 47.2° (Epoch: 06 December)

Event Time Altitude Azimuth Distance (km) Brightness Sun altitude
Rises 23:18:00 0° 178° (S) 4,637 - -40.4°
Reaches altitude 10° 23:22:28 10° 159° (SSE) 3,681 - -41.3°
Maximum altitude 23:27:49 17° 123° (ESE) 3,207 - -42.3°
Drops below altitude 10° 23:33:14 10° 87° (E) 3,763 - -43.3°
Sets 23:37:49 0° 69° (ENE) 4,788 - -44.2°
